Theta_e
316 316 316 316 315 315 315 316 316 316 316 316 316 316 316 316 316 316 317 317 316 316 317 317 317 317 309 299 300 311 335 330 331 322 323 311 316 303 304 306 308 315 316 322 328 327 326
316 315 315 315 315 315 315 315 316 315 315 315 316 316 316 316 316 317 317 316 315 316 318 319 317 318 304 292 307 319 326 325 325 315 315 308 313 306 302 302 306 310 314 316 318 318 322
315 315 315 315 314 314 315 315 315 315 315 315 316 316 315 315 316 315 315 315 315 317 320 320 319 314 304 299 312 314 324 321 321 311 309 307 308 306 302 299 306 307 303 305 308 314 323
315 315 315 315 314 314 315 314 314 315 315 315 315 315 315 315 315 315 314 313 315 318 319 320 321 311 301 314 313 315 310 318 321 312 306 308 307 302 300 302 301 301 301 297 306 309 326
315 315 315 315 315 315 315 314 314 315 315 315 315 314 314 314 313 313 312 313 317 321 321 322 310 304 299 318 306 306 311 314 317 313 310 314 304 298 298 295 292 293 293 297 302 313 323
314 314 315 315 315 314 315 315 315 315 315 314 314 313 313 313 312 311 312 314 324 320 320 319 316 299 300 298 301 303 304 318 313 311 307 302 298 293 291 291 287 290 292 296 302 309 321
315 315 315 315 314 315 315 315 315 314 314 314 314 313 312 312 311 310 307 295 293 292 294 289 292 295 297 300 302 302 310 310 306 303 295 297 292 292 294 294 296 297 299 300 305 309 317
315 315 315 315 314 315 315 315 314 314 314 314 313 312 312 311 311 310 300 295 296 297 289 294 295 296 298 295 295 299 304 306 302 296 297 294 291 295 297 296 296 296 294 294 302 310 313
315 315 315 315 315 315 315 314 314 313 313 313 312 312 311 310 310 301 297 295 299 292 286 292 295 296 296 295 293 296 299 297 301 297 297 292 295 300 297 295 294 293 293 294 299 309 317
315 315 315 315 315 314 314 314 313 313 312 312 312 312 310 309 299 297 294 299 300 296 283 289 291 296 296 295 292 300 300 297 297 299 299 298 302 299 297 295 295 288 298 299 301 300 301
314 315 315 315 314 314 314 313 313 313 312 312 312 311 309 307 296 296 299 300 297 293 276 292 292 299 295 291 293 295 305 300 294 297 298 296 298 299 297 297 299 294 302 299 301 299 300
314 314 314 314 314 314 313 313 313 312 312 312 311 310 309 303 297 301 301 298 293 284 277 288 292 290 290 290 292 296 300 302 302 298 296 297 302 300 301 304 304 306 301 299 298 299 294
314 313 313 313 313 313 313 313 312 312 311 311 309 308 306 305 297 305 299 292 282 277 289 286 285 288 286 286 289 292 295 292 290 287 288 294 297 299 302 298 303 303 295 288 286 290 291
313 313 314 314 313 313 313 313 312 312 311 310 307 306 302 305 303 300 293 287 277 286 284 288 287 286 285 287 286 289 288 288 294 291 287 286 287 295 300 297 296 298 296 289 283 283 291
313 314 314 313 313 313 313 313 312 312 311 309 306 297 297 300 303 294 290 280 279 283 289 287 286 282 282 287 286 286 285 289 292 291 285 286 288 297 300 300 298 295 295 299 290 288 286
314 313 313 313 313 313 313 313 312 312 311 309 297 291 295 303 298 293 286 282 285 292 292 288 280 284 280 283 283 281 284 291 292 294 292 290 281 293 297 300 300 296 299 292 288 287 285
314 313 313 314 313 313 313 313 312 312 310 307 292 291 299 302 297 291 282 282 288 294 294 288 284 282 282 282 282 281 283 290 294 293 293 286 285 286 294 292 292 293 292 292 294 292 290
314 314 314 314 313 313 313 313 312 310 308 303 290 287 299 297 287 284 283 286 293 291 294 291 289 286 284 284 282 281 283 287 296 293 288 290 284 283 287 296 298 295 293 290 288 288 288
314 314 314 314 313 313 313 312 311 309 308 301 289 287 297 294 281 281 285 288 291 290 291 291 290 290 289 284 281 283 286 294 297 292 289 289 284 279 283 287 292 290 291 287 287 285 289
314 314 314 313 313 313 313 312 310 309 309 296 288 285 288 288 286 282 286 284 286 294 292 292 291 290 288 286 287 283 285 292 295 294 300 295 282 281 279 283 288 287 290 290 286 284 286
313 313 313 313 312 312 312 312 311 309 308 296 288 284 286 282 285 289 284 285 286 287 291 292 289 290 288 284 284 283 286 287 291 296 294 288 280 283 286 289 289 289 289 291 288 288 286
313 313 313 311 312 312 312 313 312 310 306 293 287 287 289 287 287 289 285 286 287 289 289 288 286 290 289 286 286 283 285 283 284 290 287 288 279 282 282 288 289 287 290 293 292 292 291
313 312 312 312 312 312 312 312 312 311 304 292 294 296 295 292 290 288 288 289 289 291 293 293 292 289 286 288 291 291 291 288 286 286 285 286 284 283 278 286 286 285 290 294 295 295 297
313 311 311 311 311 311 312 312 312 312 307 301 300 299 293 288 290 290 291 292 291 291 290 293 293 291 292 294 293 291 289 289 289 288 288 285 285 284 281 282 279 291 299 300 295 295 296
312 311 311 310 311 311 312 312 312 312 311 305 303 299 294 288 291 292 293 292 292 292 291 291 292 293 295 291 284 280 279 279 284 288 285 287 286 283 280 280 287 293 295 293 292 293 297
311 310 310 311 311 312 312 312 313 312 312 308 305 304 297 291 291 294 292 292 289 288 288 290 294 293 294 290 287 280 278 283 282 283 285 287 287 284 286 278 283 293 295 297 299 290 298
310 310 310 311 311 312 312 313 313 312 312 308 304 305 299 292 295 295 292 291 294 292 289 288 291 289 289 284 284 282 282 285 281 281 281 283 285 281 283 282 287 292 294 297 291 290 298
310 310 310 311 312 312 313 313 313 313 313 308 303 305 301 295 293 296 297 295 295 294 289 289 286 286 287 284 283 284 284 286 284 285 285 284 283 283 285 281 282 293 293 290 292 296 298
310 310 310 311 312 313 313 314 313 313 313 310 304 307 306 298 296 298 302 303 302 301 296 295 291 291 291 285 286 288 285 286 284 281 290 283 286 286 285 285 293 295 294 298 299 297 298
Wind_Speed
18 18 19 19 20 20 21 21 22 22 22 23 24 24 25 24 25 25 24 22 20 18 14 10 6 6 1 1 10 7 11 18 13 9 16 8 15 6 7 7 3 6 5 3 8 10 6
18 18 19 19 19 20 20 21 22 23 24 24 25 25 25 26 25 26 24 21 20 18 14 8 7 7 3 3 3 13 9 10 9 9 9 9 12 6 5 4 7 6 10 12 8 11 6
18 18 18 18 19 20 20 21 22 23 25 25 24 26 26 27 26 28 27 23 20 17 4 11 13 4 1 12 3 5 7 5 4 9 12 4 8 8 7 1 7 4 4 5 6 4 5
18 19 19 20 20 21 22 23 24 24 24 24 25 26 27 27 27 27 27 23 20 2 9 13 12 2 8 6 4 7 4 4 5 2 3 6 4 4 2 3 4 6 5 1 4 8 5
18 19 19 20 21 21 22 23 24 23 23 24 25 25 28 28 28 28 26 23 5 7 10 11 3 4 9 5 3 2 5 5 9 2 2 5 2 2 0 3 4 5 4 6 6 7 5
18 18 19 19 20 21 21 22 22 23 24 26 26 26 28 30 29 28 25 8 9 8 4 5 2 2 4 5 5 4 3 10 6 10 3 4 3 2 2 4 8 5 3 3 6 5 7
17 18 19 20 21 21 21 21 22 24 26 27 28 28 27 28 28 26 11 1 8 5 6 3 8 5 8 8 4 3 4 7 6 5 8 5 5 21 16 5 4 4 4 5 4 6 6
18 19 19 20 21 21 22 23 24 25 26 27 27 27 28 29 26 22 2 7 7 7 10 4 8 7 7 2 3 6 1 6 6 5 6 4 15 8 6 7 6 7 2 3 5 7 7
18 19 19 20 20 21 22 23 24 24 25 27 27 28 30 29 25 4 2 5 3 3 1 8 4 5 6 2 1 9 6 3 4 6 8 9 6 13 12 7 10 9 10 4 2 5 2
18 18 18 19 19 21 23 24 24 25 27 28 29 30 30 29 4 5 2 2 7 4 5 6 4 6 7 2 1 4 5 6 4 11 8 7 9 14 12 10 12 10 10 12 5 3 4
17 17 18 19 20 21 23 24 25 27 28 29 30 31 28 8 2 3 5 7 4 4 2 4 6 4 10 7 6 8 6 7 1 4 7 8 6 9 9 17 12 7 12 12 8 6 4
17 18 19 19 20 20 22 23 24 26 27 28 29 30 26 2 1 7 6 7 4 6 4 3 4 6 8 7 9 6 8 7 2 3 2 6 3 4 10 10 16 6 3 4 2 5 11
17 17 18 19 19 20 21 22 23 25 27 28 28 29 13 2 5 13 6 4 6 3 6 4 4 5 3 7 8 8 5 12 6 5 8 7 3 2 1 6 8 8 6 2 3 6 12
17 17 17 18 19 20 21 23 23 25 27 30 30 22 4 3 6 6 4 6 3 4 4 4 5 2 4 4 4 9 4 4 7 4 4 4 2 3 7 1 9 9 12 7 8 4 9
18 18 18 18 19 19 21 22 23 25 26 31 22 5 2 5 9 2 7 6 1 1 5 6 6 3 4 4 3 4 4 2 4 5 5 4 6 4 3 2 1 5 14 9 3 1 1
18 18 18 19 19 18 20 22 22 24 26 28 6 4 4 15 8 4 7 3 3 3 6 4 0 2 2 3 1 2 1 2 3 4 0 3 5 2 6 5 8 7 5 4 1 10 9
18 19 18 19 19 19 19 20 22 22 25 20 4 5 7 17 4 8 5 1 3 5 6 4 2 2 1 0 1 3 4 1 2 2 2 2 3 9 5 4 2 6 4 3 4 7 10
19 18 18 18 18 19 19 19 18 21 22 7 4 4 6 9 7 3 2 5 5 4 4 5 3 3 2 3 3 3 6 3 4 2 2 1 4 5 10 6 5 4 3 3 3 6 4
19 19 18 18 18 18 18 18 16 15 12 4 3 3 6 5 5 4 6 5 3 5 5 6 6 5 5 3 4 1 2 3 5 3 4 4 1 3 9 3 5 5 2 5 4 3 7
19 20 19 18 18 18 17 15 14 13 9 4 3 5 5 6 1 3 6 3 5 6 3 3 3 5 6 5 0 5 3 2 1 3 5 3 2 5 6 1 4 6 7 3 2 1 6
20 21 20 18 18 17 16 14 12 11 7 4 4 0 3 4 5 5 1 3 5 6 5 1 2 2 2 3 4 5 2 6 5 6 4 4 4 4 11 13 11 14 19 10 6 10 5
19 19 19 18 17 16 15 13 11 9 5 4 3 2 1 1 2 5 3 3 7 4 3 5 3 4 6 5 7 6 4 2 6 3 3 3 3 1 10 10 14 16 15 12 12 15 14
20 20 18 17 16 15 14 12 10 6 5 2 1 1 0 2 3 3 3 3 5 11 5 5 7 6 5 9 7 8 11 8 6 5 4 4 2 2 7 5 5 7 11 8 10 9 6
19 19 17 16 15 14 13 13 10 4 4 2 1 1 1 1 2 3 4 9 10 9 9 9 8 5 6 5 9 7 9 15 13 16 9 7 5 3 7 6 6 2 9 12 15 13 13
19 19 17 16 15 14 13 12 10 4 7 2 2 2 1 1 3 6 8 5 8 8 6 6 5 4 5 3 4 5 2 2 12 16 14 10 7 4 4 4 5 5 8 8 7 9 12
19 18 16 15 14 14 13 10 8 3 4 2 2 2 2 1 3 5 5 6 4 5 5 4 5 4 4 1 2 3 3 3 4 3 7 7 5 4 3 4 6 7 13 13 13 4 11
19 18 16 15 14 14 12 10 6 2 4 3 1 3 2 1 3 2 3 2 2 2 4 5 7 7 3 3 3 3 3 2 3 9 9 8 4 8 9 4 3 11 22 18 8 3 10
18 17 15 14 14 12 11 9 5 0 6 4 1 3 2 1 5 3 2 3 2 2 2 4 5 4 3 5 3 3 3 4 3 5 5 4 4 5 5 6 6 16 9 8 7 11 9
16 16 15 14 13 10 9 8 2 4 7 4 2 1 1 1 4 2 6 6 4 5 2 2 2 2 2 3 2 4 3 4 10 5 6 3 3 1 3 2 6 10 11 9 6 7 9
Wind_Direction
18 16 13 11 8 4 1 358 354 352 349 346 344 339 335 335 331 327 327 329 326 316 307 288 266 246 126 30 256 319 109 158 161 146 165 148 160 136 174 183 160 227 281 243 253 274 252
15 14 12 8 5 2 359 357 354 351 348 345 342 337 335 332 333 327 328 331 327 318 304 254 191 149 167 252 166 18 131 143 171 170 167 156 177 164 150 204 179 203 236 285 279 277 270
11 9 7 5 2 360 358 355 352 350 347 343 340 336 334 331 332 329 326 331 325 319 343 154 169 151 151 239 327 28 160 178 198 181 172 178 149 162 135 104 223 262 303 319 252 247 239
8 6 3 2 0 358 355 353 351 348 343 339 338 336 334 333 332 329 324 331 322 324 120 142 163 132 251 263 291 305 176 161 155 251 41 73 57 101 164 261 5 170 128 184 281 183 219
8 3 1 360 358 355 351 349 347 344 340 336 337 338 334 334 334 328 328 327 331 134 130 150 115 103 287 300 313 307 162 175 145 103 300 178 91 185 341 93 13 355 197 191 300 195 174
5 0 358 358 357 353 348 345 343 342 340 338 338 339 335 335 334 329 333 335 120 107 140 199 168 304 278 312 296 277 228 143 137 137 328 104 114 140 76 129 202 198 199 214 194 210 175
360 358 357 355 354 349 345 342 342 343 342 339 337 337 334 335 331 328 343 14 13 354 51 267 262 269 287 296 298 300 94 123 98 126 165 178 149 207 196 154 186 187 195 206 232 238 155
357 355 353 354 350 345 344 343 344 342 339 336 334 334 334 334 329 322 314 77 122 215 312 262 248 259 264 254 321 340 73 153 137 156 123 111 221 201 174 182 192 241 242 269 293 267 185
353 350 349 350 347 343 343 341 340 338 336 335 337 336 337 335 325 10 16 115 119 145 99 302 264 282 284 157 324 345 37 336 170 146 178 171 232 169 176 171 196 229 230 217 232 333 231
351 346 345 347 345 342 341 339 339 339 338 338 339 338 342 332 34 326 6 153 295 200 56 288 325 358 338 296 56 338 355 194 196 189 161 229 250 176 182 188 177 220 204 239 231 267 231
348 344 345 346 344 342 341 339 340 338 337 338 338 338 345 12 236 11 296 332 303 61 22 17 348 308 335 63 300 328 359 357 88 183 139 221 199 185 191 215 181 227 171 211 208 225 290
345 345 345 344 341 340 338 336 339 335 335 335 336 332 340 344 318 243 308 312 59 48 246 4 9 353 9 18 345 310 359 24 22 325 350 220 273 207 205 193 197 166 174 156 143 174 237
341 341 340 338 337 337 336 336 337 334 333 331 334 324 324 314 304 315 322 49 44 122 342 7 334 8 43 355 345 7 42 47 36 33 14 340 258 231 215 184 194 159 113 254 235 201 234
337 337 336 334 337 335 337 335 337 334 333 331 333 320 270 222 284 318 40 53 152 41 338 335 347 7 66 22 355 353 37 39 24 69 76 20 221 18 4 269 196 186 169 170 200 194 219
334 335 336 335 336 335 338 334 336 334 336 331 334 330 21 309 322 36 64 54 115 356 279 309 325 62 3 345 56 53 38 110 21 3 96 28 269 337 182 295 359 219 207 174 107 187 14
331 332 333 333 331 336 336 333 335 336 338 333 329 334 303 336 341 64 72 122 156 25 314 349 296 33 168 313 80 56 69 95 127 10 118 180 308 285 299 296 221 193 205 120 311 216 232
328 329 330 330 329 334 336 335 335 338 341 338 28 30 319 343 39 47 93 342 327 2 4 341 339 341 135 165 250 221 180 121 130 302 66 134 116 296 346 206 153 14 220 243 172 182 223
327 326 328 327 331 333 336 336 338 338 346 19 357 32 322 344 52 32 58 308 295 9 346 344 356 34 52 342 288 255 200 142 157 154 110 147 146 267 251 265 344 171 247 13 231 241 242
324 325 328 331 334 332 333 333 337 342 11 341 15 291 328 23 66 10 325 321 310 341 30 13 15 11 1 354 318 280 355 116 145 128 163 169 303 320 310 70 36 74 54 80 237 265 221
326 325 331 331 332 331 331 333 339 343 5 80 39 13 347 38 54 88 5 321 341 2 77 37 8 48 13 355 192 311 310 19 88 196 196 110 182 203 225 323 359 314 299 81 97 309 311
326 326 331 331 334 330 328 328 336 344 9 88 26 26 180 353 2 340 24 335 344 8 1 81 72 85 10 304 324 261 255 5 318 270 65 118 205 277 268 268 265 270 281 291 201 225 217
325 327 330 334 331 330 331 333 336 349 26 74 91 75 11 286 7 335 30 356 335 348 296 317 198 231 278 241 234 286 314 159 252 37 85 36 279 299 287 262 234 250 262 272 245 258 232
327 329 334 333 335 335 335 333 332 358 70 81 285 260 59 36 331 330 3 330 321 316 259 260 316 321 277 264 248 239 250 244 231 181 149 150 199 268 262 284 256 255 231 200 101 34 320
327 332 334 337 337 335 335 332 331 3 148 141 182 95 47 339 321 305 279 295 302 317 301 291 281 255 237 298 295 271 238 234 225 235 181 175 185 229 274 292 212 229 11 92 115 64 18
330 334 336 338 336 336 332 330 332 341 176 138 149 110 137 296 255 286 310 319 314 311 273 250 271 239 313 319 315 300 242 190 230 230 188 165 173 224 250 273 313 270 36 13 333 66 26
333 334 338 334 335 335 330 326 329 358 175 138 167 120 145 262 246 260 305 305 319 323 318 280 309 303 350 343 282 268 246 182 223 99 147 142 133 174 222 246 214 62 353 327 281 85 19
334 335 336 335 336 333 330 331 328 340 163 139 143 159 122 225 273 185 269 298 284 281 281 312 325 346 22 346 283 305 292 265 253 147 161 149 169 216 243 265 279 2 334 318 216 116 349
335 336 338 334 331 333 334 329 319 321 161 137 148 181 156 239 277 210 277 279 253 204 289 296 0 353 331 351 323 316 301 324 307 43 125 126 183 187 212 231 239 17 334 356 329 316 339
336 337 337 333 336 337 331 329 338 150 164 149 98 146 125 253 270 282 271 274 241 310 254 345 288 282 322 336 338 300 321 339 340 35 29 56 302 313 244 329 342 314 314 269 308 320 320